When you browse on this site, cookies collect data to enhance your experience and personalize the content and advertising you see.
Visit our Privacy Policy to learn more. By continuing to use the site, you agree to this use of cookies and data.
  • In Deutschland
  • Länderverzeichnis
  • Für 7 Tage
  • Wassertemperatur
  • Wetterkarte
  • Widgets
  • user-avatar
    Anmelden

    Stündliche Wetter Durham

    Heute, 23 September, Montag

    Zeit Temperatur Niederschläge Wind Luftdruck Luftfeuchtigkeit
    00:00 +16°C° 0 mm 3 m/S 747 mmHg 96%
    01:00 +16°C° 0 mm 3 m/S 747 mmHg 96%
    02:00 +14°C° 0 mm 3 m/S 747 mmHg 95%
    03:00 +15°C° 0 mm 2 m/S 747 mmHg 95%
    04:00 +13°C° 0 mm 3 m/S 747 mmHg 94%
    05:00 +13°C° 0 mm 3 m/S 748 mmHg 94%
    06:00 +13°C° 0 mm 3 m/S 748 mmHg 96%
    07:00 +14°C° 0 mm 3 m/S 748 mmHg 90%
    08:00 +16°C° 0 mm 3 m/S 749 mmHg 85%
    09:00 +17°C° 0 mm 4 m/S 749 mmHg 80%
    10:00 +17°C° 0 mm 4 m/S 749 mmHg 75%
    11:00 +18°C° 0 mm 4 m/S 749 mmHg 70%
    12:00 +18°C° 0 mm 4 m/S 750 mmHg 65%
    13:00 +18°C° 0 mm 4 m/S 749 mmHg 64%
    14:00 +18°C° 0 mm 4 m/S 749 mmHg 63%
    15:00 +18°C° 0 mm 4 m/S 749 mmHg 62%
    16:00 +17°C° 0 mm 4 m/S 749 mmHg 66%
    17:00 +17°C° 0 mm 4 m/S 749 mmHg 70%
    18:00 +15°C° 0 mm 4 m/S 749 mmHg 74%
    19:00 +15°C° 0.1 mm 5 m/S 748 mmHg 77%
    20:00 +15°C° 0.1 mm 6 m/S 748 mmHg 80%
    21:00 +14°C° 0.1 mm 6 m/S 748 mmHg 84%
    22:00 +14°C° 0.2 mm 6 m/S 748 mmHg 86%
    23:00 +14°C° 0.2 mm 6 m/S 747 mmHg 88%

    Morgen, 24 September, Dienstag

    Zeit Temperatur Niederschläge Wind Luftdruck Luftfeuchtigkeit
    00:00 +14°C° 0.2 mm 6 m/S 747 mmHg 90%
    01:00 +14°C° 0.3 mm 6 m/S 747 mmHg 92%
    02:00 +14°C° 0.3 mm 5 m/S 746 mmHg 93%
    03:00 +14°C° 0.3 mm 4 m/S 746 mmHg 94%
    04:00 +14°C° 0.1 mm 4 m/S 745 mmHg 94%
    05:00 +14°C° 0.1 mm 4 m/S 745 mmHg 94%
    06:00 +14°C° 0.1 mm 4 m/S 745 mmHg 95%
    07:00 +15°C° 0 mm 4 m/S 744 mmHg 92%
    08:00 +17°C° 0 mm 3 m/S 744 mmHg 90%
    09:00 +17°C° 0 mm 3 m/S 744 mmHg 88%
    10:00 +18°C° 0.4 mm 3 m/S 743 mmHg 87%
    11:00 +18°C° 0.4 mm 4 m/S 743 mmHg 86%
    12:00 +18°C° 0.4 mm 4 m/S 742 mmHg 85%
    13:00 +18°C° 1.7 mm 3 m/S 742 mmHg 88%
    14:00 +17°C° 1.7 mm 2 m/S 742 mmHg 91%
    15:00 +16°C° 1.7 mm 1 m/S 742 mmHg 94%
    16:00 +16°C° 1.3 mm 1 m/S 742 mmHg 95%
    17:00 +16°C° 1.3 mm 2 m/S 741 mmHg 96%
    18:00 +15°C° 1.3 mm 2 m/S 741 mmHg 96%
    19:00 +15°C° 1.5 mm 2 m/S 742 mmHg 96%
    20:00 +14°C° 1.5 mm 3 m/S 742 mmHg 95%
    21:00 +14°C° 1.5 mm 3 m/S 742 mmHg 94%
    22:00 +14°C° 1 mm 3 m/S 742 mmHg 93%
    23:00 +13°C° 1 mm 3 m/S 742 mmHg 93%

    übermorgen, 25 September, Mittwoch

    Zeit Temperatur Niederschläge Wind Luftdruck Luftfeuchtigkeit
    00:00 +14°C° 1 mm 2 m/S 741 mmHg 92%
    01:00 +14°C° 0.2 mm 2 m/S 741 mmHg 92%
    02:00 +14°C° 0.2 mm 2 m/S 741 mmHg 92%
    03:00 +13°C° 0.2 mm 2 m/S 741 mmHg 93%
    04:00 +13°C° 0 mm 2 m/S 742 mmHg 93%
    05:00 +13°C° 0 mm 1 m/S 742 mmHg 93%
    06:00 +13°C° 0 mm 1 m/S 742 mmHg 93%
    07:00 +14°C° 0 mm 1 m/S 742 mmHg 90%
    08:00 +15°C° 0 mm 1 m/S 743 mmHg 87%
    09:00 +15°C° 0 mm 1 m/S 743 mmHg 84%
    10:00 +16°C° 0 mm 1 m/S 744 mmHg 80%
    11:00 +18°C° 0 mm 1 m/S 744 mmHg 76%
    12:00 +19°C° 0 mm 1 m/S 744 mmHg 72%
    13:00 +18°C° 0 mm 2 m/S 744 mmHg 73%
    14:00 +18°C° 0 mm 2 m/S 744 mmHg 73%
    15:00 +18°C° 0 mm 2 m/S 744 mmHg 74%
    16:00 +17°C° 0.1 mm 2 m/S 744 mmHg 78%
    17:00 +16°C° 0.1 mm 2 m/S 745 mmHg 83%
    18:00 +16°C° 0.1 mm 2 m/S 745 mmHg 87%
    19:00 +15°C° 0 mm 2 m/S 745 mmHg 89%
    20:00 +14°C° 0 mm 2 m/S 745 mmHg 90%
    21:00 +14°C° 0 mm 2 m/S 745 mmHg 92%
    22:00 +13°C° 0 mm 2 m/S 744 mmHg 91%
    23:00 +12°C° 0 mm 3 m/S 744 mmHg 91%

    26 September, Donnerstag

    Zeit Temperatur Niederschläge Wind Luftdruck Luftfeuchtigkeit
    00:00 +12°C° 0 mm 3 m/S 743 mmHg 91%
    01:00 +12°C° 0.8 mm 4 m/S 743 mmHg 92%
    02:00 +13°C° 0.8 mm 5 m/S 743 mmHg 93%
    03:00 +13°C° 0.8 mm 6 m/S 742 mmHg 94%
    04:00 +13°C° 0.4 mm 6 m/S 742 mmHg 91%
    05:00 +13°C° 0.4 mm 5 m/S 742 mmHg 89%
    06:00 +14°C° 0.4 mm 5 m/S 742 mmHg 87%
    07:00 +14°C° 0 mm 6 m/S 743 mmHg 83%
    08:00 +14°C° 0 mm 6 m/S 743 mmHg 79%
    09:00 +14°C° 0 mm 6 m/S 743 mmHg 75%
    10:00 +15°C° 0 mm 6 m/S 744 mmHg 72%
    11:00 +15°C° 0 mm 6 m/S 744 mmHg 70%
    12:00 +16°C° 0 mm 7 m/S 744 mmHg 67%
    13:00 +16°C° 0 mm 7 m/S 744 mmHg 67%
    14:00 +16°C° 0 mm 7 m/S 744 mmHg 67%
    15:00 +15°C° 0 mm 7 m/S 744 mmHg 67%
    16:00 +14°C° 0 mm 6 m/S 744 mmHg 70%
    17:00 +13°C° 0 mm 5 m/S 745 mmHg 73%
    18:00 +12°C° 0 mm 5 m/S 745 mmHg 77%
    19:00 +12°C° 0 mm 5 m/S 745 mmHg 77%
    20:00 +12°C° 0 mm 5 m/S 745 mmHg 78%
    21:00 +12°C° 0 mm 5 m/S 745 mmHg 79%
    22:00 +12°C° 0.1 mm 5 m/S 745 mmHg 80%
    23:00 +12°C° 0.1 mm 5 m/S 745 mmHg 81%

    27 September, Freitag

    Zeit Temperatur Niederschläge Wind Luftdruck Luftfeuchtigkeit
    00:00 +12°C° 0.1 mm 5 m/S 745 mmHg 82%
    01:00 +10°C° 0 mm 5 m/S 745 mmHg 84%
    02:00 +10°C° 0 mm 5 m/S 745 mmHg 86%
    03:00 +10°C° 0 mm 5 m/S 744 mmHg 87%
    04:00 +10°C° 0 mm 5 m/S 744 mmHg 87%
    05:00 +10°C° 0 mm 5 m/S 744 mmHg 87%
    06:00 +10°C° 0 mm 6 m/S 744 mmHg 87%
    07:00 +10°C° 0.3 mm 6 m/S 743 mmHg 86%
    08:00 +11°C° 0.3 mm 6 m/S 743 mmHg 86%
    09:00 +11°C° 0.3 mm 7 m/S 743 mmHg 86%
    10:00 +12°C° 0.1 mm 7 m/S 743 mmHg 82%
    11:00 +14°C° 0.1 mm 7 m/S 743 mmHg 78%
    12:00 +15°C° 0.1 mm 8 m/S 743 mmHg 74%
    13:00 +13°C° 0.2 mm 8 m/S 743 mmHg 76%
    14:00 +14°C° 0.2 mm 7 m/S 742 mmHg 78%
    15:00 +12°C° 0.2 mm 7 m/S 742 mmHg 80%
    16:00 +12°C° 0 mm 7 m/S 742 mmHg 81%
    17:00 +11°C° 0 mm 7 m/S 742 mmHg 82%
    18:00 +11°C° 0 mm 6 m/S 742 mmHg 83%
    19:00 +11°C° 0 mm 6 m/S 742 mmHg 83%
    20:00 +11°C° 0 mm 6 m/S 742 mmHg 83%
    21:00 +10°C° 0 mm 6 m/S 743 mmHg 84%
    22:00 +10°C° 0 mm 6 m/S 742 mmHg 84%
    23:00 +10°C° 0 mm 6 m/S 742 mmHg 85%

    28 September, Samstag

    Zeit Temperatur Niederschläge Wind Luftdruck Luftfeuchtigkeit
    00:00 +11°C° 0 mm 6 m/S 742 mmHg 85%
    01:00 +11°C° 0.3 mm 7 m/S 742 mmHg 86%
    02:00 +11°C° 0.3 mm 7 m/S 742 mmHg 87%
    03:00 +11°C° 0.3 mm 7 m/S 741 mmHg 88%
    04:00 +11°C° 0.5 mm 8 m/S 741 mmHg 87%
    05:00 +10°C° 0.5 mm 8 m/S 742 mmHg 86%
    06:00 +10°C° 0.5 mm 8 m/S 742 mmHg 85%
    07:00 +11°C° 0 mm 8 m/S 742 mmHg 82%
    08:00 +11°C° 0 mm 8 m/S 743 mmHg 80%
    09:00 +11°C° 0 mm 8 m/S 744 mmHg 77%
    10:00 +12°C° 0 mm 8 m/S 744 mmHg 74%
    11:00 +13°C° 0 mm 8 m/S 744 mmHg 72%
    12:00 +13°C° 0 mm 8 m/S 745 mmHg 69%
    13:00 +13°C° 0 mm 8 m/S 745 mmHg 69%
    14:00 +13°C° 0 mm 8 m/S 745 mmHg 69%
    15:00 +13°C° 0 mm 8 m/S 745 mmHg 69%
    16:00 +14°C° 0 mm 7 m/S 745 mmHg 73%
    17:00 +12°C° 0 mm 7 m/S 745 mmHg 77%
    18:00 +11°C° 0 mm 6 m/S 745 mmHg 81%
    19:00 +10°C° 0 mm 6 m/S 746 mmHg 82%
    20:00 +10°C° 0 mm 6 m/S 746 mmHg 84%
    21:00 +9°C° 0 mm 5 m/S 746 mmHg 86%
    22:00 +9°C° 0 mm 5 m/S 746 mmHg 86%
    23:00 +9°C° 0 mm 5 m/S 746 mmHg 86%
    Mehr zeigen